Asheville, NC

7:32 PM EDT on May 22, 2017 (GMT -0400)
Asheville Regional

Weather History for KAVL - March, 2014

Change the Weather History Date:

Sunday, March 23, 2014

  Actual Average Record
Temperature  
Mean Temperature 44 °F 49 °F  
Max Temperature 50 °F 61 °F 85 °F (1907)
Min Temperature 37 °F 37 °F 18 °F (2004)
Degree Days  
Heating Degree Days 21 16  
Month to date heating degree days 461 434  
Since 1 July heating degree days 3780 3651  
Cooling Degree Days 0 0  
Month to date cooling degree days 0 0  
Year to date cooling degree days 0 0  
Moisture  
Dew Point 37 °F    
Average Humidity 73    
Maximum Humidity 100    
Minimum Humidity 45    
Precipitation  
Precipitation 0.28 in 0.13 in 2.38 in (1979)
Month to date precipitation 1.87 2.83  
Year to date precipitation 7.22 10.26  
Snow  
Snow 0.00 in 0.10 in 0.30 in (1970)
Month to date snowfall T 1.5  
Since 1 July snowfall 9.4 8.8  
Snow Depth 0.00 in    
Sea Level Pressure  
Sea Level Pressure 30.02 in    
Wind  
Wind Speed 12 mph (NNW)    
Max Wind Speed 26 mph    
Max Gust Speed 35 mph    
Visibility 9 miles    
Events Rain    
T = Trace of Precipitation, MM = Missing Value Source: NWS Daily Summary

Daily Weather History Graph

Daily Weather History Graph

Search for Another Location

Airport or City:

Trip Planner

Search our weather history database for the weather conditions in past years. The results will help you decide how hot, cold, wet, or windy it might be!

Date:

Astronomy

Mar. 23, 2014 Rise Set
Actual Time 7:29 AM EDT 7:44 PM EDT
Civil Twilight 7:04 AM EDT 8:09 PM EDT
Nautical Twilight 6:34 AM EDT 8:39 PM EDT
Astronomical Twilight 6:04 AM EDT 9:09 PM EDT
Moon 1:50 AM EDT (3/23) 12:19 PM EDT (3/23)
Length of Visible Light 13h 05m
Length of Day
12h 14m
Waning Gibbous, 55% of the Moon is Illuminated
Mar 23
Waning Gibbous
Mar 23
Last Quarter
Mar 30
New
Apr 7
First Quarter
Apr 15
Full

Hourly Weather History & Observations

Time (EDT) Temp. Windchill Dew Point Humidity Pressure Visibility Wind Dir Wind Speed Gust Speed Precip Events Conditions
12:54 AM 44.1 °F 42.5 °F 37.9 °F 79% 30.00 in 10.0 mi North 3.5 mph - N/A   Clear
1:54 AM 44.1 °F - 39.0 °F 82% 29.99 in 10.0 mi Calm Calm - N/A   Clear
2:54 AM 42.1 °F - 37.9 °F 85% 29.98 in 10.0 mi Calm Calm - N/A   Clear
3:54 AM 39.0 °F - 37.0 °F 93% 29.96 in 10.0 mi Calm Calm - N/A   Clear
4:54 AM 39.9 °F - 37.0 °F 89% 29.95 in 10.0 mi Calm Calm - N/A   Clear
5:54 AM 39.0 °F 36.8 °F 37.0 °F 93% 29.94 in 10.0 mi WSW 3.5 mph - N/A   Clear
6:54 AM 41.0 °F - 39.0 °F 93% 29.95 in 10.0 mi Calm Calm - N/A   Clear
7:54 AM 44.1 °F 35.7 °F 37.9 °F 79% 30.01 in 6.0 mi North 20.7 mph 29.9 mph 0.01 in Rain Rain
8:54 AM 42.1 °F 35.7 °F 42.1 °F 100% 30.03 in 2.5 mi North 11.5 mph - 0.14 in Rain Rain
9:54 AM 42.1 °F 37.1 °F 42.1 °F 100% 30.04 in 3.0 mi North 8.1 mph - 0.11 in Rain Rain
10:54 AM 42.1 °F 36.1 °F 42.1 °F 100% 30.04 in 10.0 mi North 10.4 mph - 0.02 in Rain Light Rain
11:34 AM 43.0 °F 37.2 °F 43.0 °F 100% 30.03 in 10.0 mi North 10.4 mph - 0.00 in   Overcast
11:44 AM 43.0 °F 36.8 °F 43.0 °F 100% 30.03 in 10.0 mi North 11.5 mph - 0.00 in   Mostly Cloudy
11:54 AM 44.1 °F 39.5 °F 44.1 °F 100% 30.03 in 10.0 mi North 8.1 mph - 0.00 in   Overcast
12:25 PM 45.0 °F 40.1 °F 41.0 °F 86% 30.04 in 10.0 mi North 9.2 mph - N/A   Overcast
12:45 PM 46.0 °F 41.0 °F 41.0 °F 83% 30.03 in 10.0 mi North 10.4 mph 18.4 mph N/A   Overcast
12:54 PM 46.9 °F - 42.1 °F 83% 30.03 in 10.0 mi North 11.5 mph - N/A   Overcast
1:38 PM 48.0 °F - 39.9 °F 74% 30.02 in 10.0 mi NNW 19.6 mph 26.5 mph N/A   Mostly Cloudy
1:54 PM 46.9 °F - 39.0 °F 74% 30.01 in 10.0 mi NNW 18.4 mph 27.6 mph N/A   Overcast
2:54 PM 45.0 °F 37.4 °F 39.0 °F 80% 30.01 in 10.0 mi North 18.4 mph 26.5 mph N/A   Overcast
3:27 PM 44.1 °F 36.2 °F 37.0 °F 76% 30.02 in 10.0 mi NNW 18.4 mph 31.1 mph N/A   Overcast
3:54 PM 44.1 °F 36.2 °F 36.0 °F 73% 30.03 in 10.0 mi North 18.4 mph 26.5 mph N/A   Overcast
4:34 PM 45.0 °F 35.8 °F 36.0 °F 71% 30.00 in 10.0 mi North 26.5 mph 34.5 mph N/A   Mostly Cloudy
4:54 PM 48.0 °F - 37.0 °F 66% 30.01 in 10.0 mi NNW 18.4 mph 27.6 mph N/A   Partly Cloudy
5:54 PM 48.9 °F - 33.1 °F 54% 30.02 in 10.0 mi NNW 19.6 mph 29.9 mph N/A   Clear
6:54 PM 48.0 °F - 30.0 °F 50% 30.03 in 10.0 mi NNW 17.3 mph 23.0 mph N/A   Clear
7:54 PM 46.0 °F 39.3 °F 27.0 °F 47% 30.06 in 10.0 mi NW 16.1 mph 23.0 mph N/A   Clear
8:54 PM 44.1 °F 39.0 °F 26.1 °F 49% 30.07 in 10.0 mi North 9.2 mph - N/A   Partly Cloudy
9:54 PM 43.0 °F 35.7 °F 24.1 °F 47% 30.10 in 10.0 mi North 15.0 mph 23.0 mph N/A   Clear
10:54 PM 39.9 °F 31.1 °F 24.1 °F 53% 30.13 in 10.0 mi NNW 17.3 mph 29.9 mph N/A   Clear
11:54 PM 37.9 °F 28.9 °F 23.0 °F 55% 30.14 in 10.0 mi North 16.1 mph 25.3 mph N/A   Clear